Location: Helsinki
(60.1699°N, 24.9384°E)
Time: 12:32:55
(UTC+02:00)

Transit 2A Rocket - Pass Details

Date: 23 September 2023
Orbit: 593 x 903 km, 66.7° (Epoch: 06 December)

Event Time Altitude Azimuth Distance (km) Brightness Sun altitude
Rises 02:16:13 0° 304° (WNW) 2,971 8.2 -28.5°
Enters shadow 02:17:39 - 294° (WNW) 2,553 7.8 -28.4°
Drops below altitude 10° 02:18:02 - 291° (WNW) 2,457 - -28.4°
Maximum altitude 02:21:19 10° 255° (WSW) 1,981 - -28.3°
Sets 02:26:16 0° 205° (SSW) 2,833 - -28.1°
